Location: Nairn
(57.5833°N, 3.8667°W)
Time: 17:38:35
(UTC+00:00)

S-56A Canister/Altair - Pass Details

Date: 04 December 2020
Orbit: 633 x 2499 km, 38.9° (Epoch: 19 January)

Event Time Altitude Azimuth Distance (km) Brightness Sun altitude
Rises 18:32:53 0° 226° (SW) 5,950 12.9 -22.3°
Reaches altitude 10° 18:38:02 10° 215° (SW) 4,720 12.0 -23.0°
Maximum altitude 18:47:07 24° 170° (S) 3,178 10.5 -24.2°
Enters shadow 18:51:19 18° 138° (SE) 3,217 10.3 -24.8°
Drops below altitude 10° 18:54:14 10° 121° (ESE) 3,604 - -25.1°
Sets 18:57:30 0° 108° (ESE) 4,297 - -25.6°
